FLOCK 4BE-7 (60481 NORAD) Tracking and Keplerian Element Data

This shows tracking and keplerian element data for the satellite.

Feedback or suggestion? Click here.




ElementValue
Catalog60481
NameFLOCK 4BE-7
Epoch Orbit865
Epoch Day286.8409729
Epoch Year2024
RAAN1.5002
Inclination97.4383
Eccentricity0.000381
Argument of Perigee261.1834
Mean Anonmoly98.8969
Mean Motion15.19408566
Decay Rate0.00021022
L11 60481U 24149P 24286.84097290 .00021022 00000+0 99386-3 0 9994
L22 60481 97.4383 1.5002 0003810 261.1834 98.8969 15.19408566 8653



Live tracking and technical data element details for FLOCK 4BE-7 (NORAD 60481). FLOCK 4BE-7 can be tracked NOW for your location showing map with azimuth and elevation plus other details from your city location.







IsCatalogInMostPopularTable: catalog: 60481, numindb: 6
Update: records affected: 1



GetName: 60481 FLOCK 4BE-7

Hit Count: updated at: Wed, 04 Dec 2024 18:58:01 GMT